Regional Weather Roundup
Issued by NWS

Home | Current Version | Previous Version | Text Only | Print | Product List | Glossary On
Versions: 1 2 3 4 5 6 7 8 9 10 11 12 13 14 15 16 17 18 19 20 21 22 23 24 25 26 27 28 29 30 31 32 33 34 35 36 37 38 39 40 41 42 43 44 45 46 47 48 49 50
248
ASUS43 KMKX 220320
RWRWI

WISCONSIN REGIONAL WEATHER ROUNDUP
NATIONAL WEATHER SERVICE MILWAUKEE/SULLIVAN WI
900 PM CST SAT JAN 21 2017

NOTE: "FAIR" INDICATES FEW OR NO CLOUDS BELOW 12,000 FEET WITH NO
SIGNIFICANT WEATHER AND/OR OBSTRUCTIONS TO VISIBILITY.

WIZ001-002-006>008-014>016-023>028-220400-
NORTHWEST WISCONSIN

CITY           SKY/WX    TMP DP  RH WIND       PRES   REMARKS
SUPERIOR ARPT  CLOUDY    35  35 100 NE6       29.54R FOG     WCI  30
ASHLAND        FOG       33  33 100 NW3       29.52R VSB 1/4
HAYWARD        CLOUDY    34  33  96 NE5       29.49S FOG     WCI  30
SIREN          FOG       35  35  99 CALM      29.51R VSB 1
CUMBERLAND     FOG       32  32 100 CALM      29.50R VSB 1/4
RICE LAKE      FOG       34  34 100 CALM      29.51R VSB<1/4
CHETEK         FOG       33  33 100 CALM      29.50S VSB 1/2
LADYSMITH      FOG       35  35  99 CALM      29.50S VSB 1/2
EAU CLAIRE     FOG       35  34  96 CALM      29.49R VSB 1/4
MENOMONIE        N/A    N/A N/A N/A MISG        N/A
NEW RICHMOND   FOG       33  33 100 CALM      29.51R VSB 1/2
OSCEOLA        FOG       34  34 100 CALM      29.54R VSB 1/4
$$

WIZ003>005-009-010-017-018-220400-
NORTH CENTRAL WISCONSIN

CITY           SKY/WX    TMP DP  RH WIND       PRES   REMARKS
MANITOWISH WTR DRIZZLE   34  34 100 SE5       29.48S WCI  30
ARBOR VITAE    CLOUDY    37  36  96 CALM      29.49R FOG
WOODRUFF       CLOUDY    37  36  96 CALM      29.49R FOG
RHINELANDER    FOG       35  35 100 E3        29.50R VSB 1/2
EAGLE RIVER    MIX PCPN  34  34 100 CALM      29.49R
LAND O LAKES   MIX PCPN  35  35 100 SE3       29.50S
PHILLIPS       FOG       34  34 100 CALM      29.49R VSB 3/4
TOMAHAWK       FOG       34  33  97 CALM      29.50S VSB 1/2
MEDFORD        FOG       34  34  99 SE3       29.48S VSB 1/4
MERRILL        LGT RAIN  35  35 100 CALM        N/A  VSB 1/2
$$

WIZ029-030-035-036-043>047-220400-
CENTRAL WISCONSIN

CITY           SKY/WX    TMP DP  RH WIND       PRES   REMARKS
WAUSAU         FOG       35  35 100 SE3       29.49S VSB 1/4
MOSINEE        FOG       36  36 100 CALM      29.50S VSB 1/4
MARSHFIELD     FOG       36  35  96 CALM      29.48R VSB 1/4
STEVENS POINT  FOG       33  33 100 CALM      29.51S VSB 1/2
WAUPACA        FOG       36  35  96 CALM      29.53S VSB 1/2
WAUTOMA        FOG       36  36 100 CALM      29.54R VSB 1/2
WISC RAPIDS    FOG       38  38 100 S3        29.51S VSB 1/4
CAMP DOUGLAS   FOG       38  38  99 S5        29.51R VSB 1/2 WCI  35
$$

WIZ011>013-019>022-031-037>040-048>050-220400-
NORTHEAST WISCONSIN

CITY           SKY/WX    TMP DP  RH WIND       PRES   REMARKS
ANTIGO         FOG       33  33 100 CALM      29.50S VSB 1/2
SHAWANO        FOG       36  35  96 CALM      29.52S VSB 3/4
OCONTO         CLOUDY    34  34 100 CALM      29.52R VSB 1/4
STURGEON BAY   FOG       38  38 100 SW7       29.53S VSB 1/2 WCI  33
GREEN BAY      FOG       37  37 100 S5        29.53R VSB 3/4 WCI  33
MANITOWOC      CLOUDY    42  41  96 CALM      29.54S FOG
APPLETON       FOG       36  36 100 CALM      29.52R VSB 1/4
CLINTONVILLE   FOG       34  34 100 CALM      29.52S VSB 1/2
OSHKOSH        FOG       38  38 100 CALM      29.53S VSB 1/2
$$

WIZ032>034-041-042-053>061-220400-
SOUTHWEST WISCONSIN

CITY           SKY/WX    TMP DP  RH WIND       PRES   REMARKS
LA CROSSE      FOG       41  38  89 S5        29.52R VSB 1/2
SPARTA         FOG       37  37 100 S3        29.52S VSB 1/2
VIROQUA        CLOUDY    37  37 100 SW5       29.52R VSB 1/4 WCI  34
BOSCOBEL       CLOUDY    42  40  92 SW5       29.55R FOG
PRAIRIE DU CHI CLOUDY    40  39  97 CALM      29.54S FOG
PLATTEVILLE    CLOUDY    39  39 100 S6        29.55R VSB 1/2 WCI  35
$$

WIZ056-057-062-063-064-067-068-220400-
SOUTH CENTRAL WISCONSIN

CITY           SKY/WX    TMP DP  RH WIND       PRES   REMARKS
REEDSBURG      FOG       39  39 100 S6        29.52S VSB 1/4 WCI  35
BARABOO/DELLS  FOG       39  38  99 S7        29.53R VSB<1/4 WCI  34
LONE ROCK      CLOUDY    41  39  93 CALM      29.56R FOG
MINERAL POINT  LGT RAIN  41  41 100 S5        29.54R VSB 1/4
MADISON        CLOUDY    42  40  92 S5        29.56R
MIDDLETON      CLOUDY    42  42 100 SW5       29.55R
WATERTOWN      CLOUDY    41  41 100 S5        29.55R FOG
MONROE         FOG       39  39 100 S7        29.56R VSB 1   WCI  34
JANESVILLE     CLOUDY    43  43 100 S5        29.56S FOG
$$

WIZ051-052-058>065-066-070>072-220400-
SOUTHEAST WISCONSIN

CITY           SKY/WX    TMP DP  RH WIND       PRES   REMARKS
MILWAUKEE      CLOUDY    45  41  86 W8        29.57R
WAUKESHA       CLOUDY    39  39 100 SW5       29.58R FOG
MILWAUKEE/TIMM CLOUDY    43  39  87 W6        29.57R FOG
RACINE         CLOUDY    44  41  89 W7        29.58S FOG
KENOSHA        CLOUDY    43  41  93 W6        29.57R FOG
FOND DU LAC    FOG       40  38  93 S3        29.53F VSB 1/2
SHEBOYGAN      CLOUDY    40  38  93 SW6       29.53F
WEST BEND      CLOUDY    41  41 100 SW5       29.55R
JUNEAU         CLOUDY    40  39  97 S6        29.55S FOG
$$

LSZ147-162-220400-
LAKE SUPERIOR

STATION/POSITION TIME  TEMP    WIND        PRES    WAVE
                       AIR SEA DIR/SP/G            HT/PER
                 (UTC) (F)     (DEG/KT/KT) (MB)    (FT/S)
DEVILS ISLAND    0300   35      40/ 10/ 10 1000.4R
PORT WING        0240   34      40/  6/  7 1000.3R
SAXON HARBOR     0230   33      CALM  /  1  999.3R
$$

LMZ867-665-643>646-220400-
LAKE MICHIGAN

STATION/POSITION TIME  TEMP    WIND        PRES    WAVE
                       AIR SEA DIR/SP/G            HT/PER
                 (UTC) (F)     (DEG/KT/KT) (MB)    (FT/S)
NORTHPORT PIER   0240   40     150/  5/  7  999.7S
SISTER BAY       0250   40     180/  9/ 11   N/A
KEWAUNEE LAKESHO 0248   38      CALM  /  1  999.8R
SHEBOYGAN LAKESH 0300   44     240/  5/  5 1000.5S
PORT WASHINGTON  0230   43     200/  1/  4 1002.0R
KENOSHA   LAKESH 0300   44     260/ 10/ 13 1002.0
$$

TC  - TEMPERATURE IN CELSIUS
VSB - VISIBILITY IN STATUTE MILES
WCI - WIND CHILL INDEX
HX  - HEAT INDEX





USA.gov is the U.S. government's official web portal to all federal, state and local government web resources and services.